ROU441 CYYC-CYLW

Flight info

Callsign ROU441
Flight time 0h 45m
Altitude 34000
Route BOTAG Q894 BINVO DCT ROBTI DCT NORIP NORIP5
Aircraft A319/M-SDE3FGHIRWY/LB1

Departure

Time 2026-05-03 23:04
Airport Calgary International Airport (CYYC)

Arrival

Time 2026-05-03 23:50
Airport Kelowna International Airport (CYLW)
Time Latitude Longitude Altitude Speed Heading
2026-05-03 22:30 51.12933 -114.01158 3557 ft 0 kts 316°
2026-05-03 22:48 51.12920 -114.01135 3558 ft 4 kts 304°
2026-05-03 22:48 51.12904 -114.01102 3557 ft 4 kts 305°
2026-05-03 22:48 51.12894 -114.01066 3559 ft 4 kts 262°
2026-05-03 22:48 51.12902 -114.01041 3555 ft 1 kts 204°
2026-05-03 22:49 51.12906 -114.01038 3555 ft 0 kts 204°
2026-05-03 22:52 51.12905 -114.01039 3555 ft 1 kts 205°
2026-05-03 22:52 51.12899 -114.01047 3558 ft 2 kts 216°
2026-05-03 22:52 51.12891 -114.01056 3559 ft 2 kts 218°
2026-05-03 22:52 51.12876 -114.01075 3559 ft 3 kts 219°
2026-05-03 22:53 51.12857 -114.01100 3559 ft 4 kts 219°
2026-05-03 22:53 51.12835 -114.01132 3558 ft 5 kts 224°
2026-05-03 22:53 51.12811 -114.01169 3555 ft 5 kts 223°
2026-05-03 22:53 51.12783 -114.01210 3555 ft 6 kts 222°
2026-05-03 22:54 51.12751 -114.01254 3556 ft 6 kts 221°
2026-05-03 22:54 51.12715 -114.01302 3559 ft 7 kts 220°
2026-05-03 22:54 51.12678 -114.01354 3557 ft 7 kts 220°
2026-05-03 22:54 51.12637 -114.01409 3556 ft 8 kts 220°
2026-05-03 22:55 51.12601 -114.01475 3559 ft 8 kts 251°
2026-05-03 22:55 51.12600 -114.01565 3559 ft 8 kts 270°
2026-05-03 22:55 51.12602 -114.01657 3559 ft 9 kts 271°
2026-05-03 22:55 51.12595 -114.01751 3557 ft 9 kts 243°
2026-05-03 22:56 51.12540 -114.01792 3558 ft 10 kts 185°
2026-05-03 22:56 51.12458 -114.01798 3559 ft 13 kts 182°
2026-05-03 22:56 51.12359 -114.01795 3559 ft 15 kts 179°
2026-05-03 22:56 51.12254 -114.01794 3558 ft 15 kts 180°
2026-05-03 22:57 51.12149 -114.01794 3555 ft 15 kts 180°
2026-05-03 22:57 51.12044 -114.01795 3560 ft 15 kts 180°
2026-05-03 22:57 51.11943 -114.01796 3560 ft 15 kts 180°
2026-05-03 22:57 51.11839 -114.01795 3557 ft 15 kts 179°
2026-05-03 22:58 51.11734 -114.01794 3558 ft 15 kts 181°
2026-05-03 22:58 51.11631 -114.01795 3558 ft 15 kts 179°
2026-05-03 22:58 51.11528 -114.01796 3559 ft 15 kts 180°
2026-05-03 22:58 51.11425 -114.01796 3559 ft 15 kts 180°
2026-05-03 22:59 51.11323 -114.01797 3559 ft 15 kts 180°
2026-05-03 22:59 51.11221 -114.01797 3559 ft 15 kts 180°
2026-05-03 22:59 51.11120 -114.01797 3559 ft 15 kts 180°
2026-05-03 22:59 51.11021 -114.01797 3559 ft 14 kts 180°
2026-05-03 23:00 51.10920 -114.01797 3557 ft 14 kts 180°
2026-05-03 23:00 51.10820 -114.01797 3559 ft 14 kts 180°
2026-05-03 23:00 51.10720 -114.01798 3559 ft 14 kts 180°
2026-05-03 23:00 51.10618 -114.01796 3559 ft 15 kts 179°
2026-05-03 23:01 51.10507 -114.01796 3559 ft 16 kts 180°
2026-05-03 23:01 51.10396 -114.01797 3560 ft 16 kts 180°
2026-05-03 23:01 51.10281 -114.01798 3557 ft 16 kts 180°
2026-05-03 23:01 51.10170 -114.01797 3557 ft 16 kts 179°
2026-05-03 23:02 51.10059 -114.01798 3559 ft 16 kts 180°
2026-05-03 23:02 51.09948 -114.01799 3559 ft 16 kts 180°
2026-05-03 23:02 51.09838 -114.01800 3556 ft 16 kts 180°
2026-05-03 23:02 51.09730 -114.01807 3559 ft 16 kts 197°
2026-05-03 23:03 51.09690 -114.01951 3560 ft 15 kts 268°
2026-05-03 23:03 51.09696 -114.02104 3561 ft 13 kts 300°
2026-05-03 23:03 51.09763 -114.02139 3561 ft 7 kts 358°
2026-05-03 23:03 51.09811 -114.02142 3558 ft 8 kts 359°
2026-05-03 23:04 51.09927 -114.02144 3559 ft 42 kts 359°
2026-05-03 23:04 51.10471 -114.02142 3554 ft 111 kts
2026-05-03 23:04 51.11422 -114.02131 3558 ft 161 kts
2026-05-03 23:04 51.12497 -114.02190 4333 ft 145 kts 353°
2026-05-03 23:05 51.13453 -114.02315 5110 ft 134 kts 359°
2026-05-03 23:05 51.14391 -114.02273 5615 ft 142 kts 359°
2026-05-03 23:05 51.15444 -114.02296 5932 ft 163 kts 356°
2026-05-03 23:05 51.16659 -114.02369 6253 ft 188 kts 356°
2026-05-03 23:06 51.18050 -114.02455 6654 ft 212 kts 356°
2026-05-03 23:06 51.19613 -114.02549 7084 ft 237 kts 356°
2026-05-03 23:06 51.21255 -114.03138 7641 ft 255 kts 333°
2026-05-03 23:06 51.22581 -114.05055 8522 ft 265 kts 304°
2026-05-03 23:07 51.23186 -114.07860 9524 ft 275 kts 278°
2026-05-03 23:07 51.23096 -114.09921 10160 ft 283 kts 262°
2026-05-03 23:07 51.22675 -114.12179 10376 ft 306 kts 254°
2026-05-03 23:07 51.21786 -114.15423 10701 ft 332 kts 248°
2026-05-03 23:08 51.20731 -114.18807 11241 ft 346 kts 246°
2026-05-03 23:08 51.19619 -114.22241 12056 ft 350 kts 246°
2026-05-03 23:08 51.18489 -114.25678 12920 ft 352 kts 246°
2026-05-03 23:08 51.17351 -114.29146 13772 ft 354 kts 245°
2026-05-03 23:09 51.16224 -114.32598 14481 ft 357 kts 246°
2026-05-03 23:09 51.15075 -114.36138 15173 ft 362 kts 247°
2026-05-03 23:09 51.13916 -114.39716 15851 ft 366 kts 248°
2026-05-03 23:09 51.12742 -114.43344 16471 ft 371 kts 248°
2026-05-03 23:10 51.11551 -114.47021 17091 ft 377 kts 248°
2026-05-03 23:10 51.10338 -114.50742 17756 ft 381 kts 248°
2026-05-03 23:10 51.09105 -114.54505 18403 ft 385 kts 249°
2026-05-03 23:10 51.07860 -114.58304 18999 ft 388 kts 249°
2026-05-03 23:11 51.06831 -114.62246 19591 ft 385 kts 258°
2026-05-03 23:11 51.06168 -114.66302 20190 ft 385 kts 262°
2026-05-03 23:11 51.05524 -114.70447 20783 ft 387 kts 262°
2026-05-03 23:11 51.04871 -114.74608 21351 ft 390 kts 262°
2026-05-03 23:12 51.04206 -114.78815 21886 ft 394 kts 262°
2026-05-03 23:12 51.03533 -114.83045 22442 ft 396 kts 262°
2026-05-03 23:12 51.02852 -114.87293 22949 ft 399 kts 261°
2026-05-03 23:12 51.02159 -114.91586 23347 ft 404 kts 261°
2026-05-03 23:13 51.01458 -114.95918 23727 ft 406 kts 261°
2026-05-03 23:13 51.00748 -115.00274 24179 ft 408 kts 261°
2026-05-03 23:13 51.00033 -115.04639 24623 ft 410 kts 261°
2026-05-03 23:13 50.99314 -115.09032 25063 ft 412 kts 261°
2026-05-03 23:14 50.98593 -115.13451 25469 ft 415 kts 261°
2026-05-03 23:14 50.97876 -115.17836 25907 ft 417 kts 261°
2026-05-03 23:14 50.97145 -115.22293 26314 ft 419 kts 261°
2026-05-03 23:14 50.96405 -115.26785 26738 ft 422 kts 261°
2026-05-03 23:15 50.95657 -115.31298 27137 ft 424 kts 261°
2026-05-03 23:15 50.94904 -115.35828 27526 ft 426 kts 261°
2026-05-03 23:15 50.94148 -115.40374 27899 ft 428 kts 261°
2026-05-03 23:15 50.93386 -115.44956 28260 ft 431 kts 261°
2026-05-03 23:16 50.92615 -115.49563 28644 ft 433 kts 261°
2026-05-03 23:16 50.91839 -115.54188 28911 ft 436 kts 261°
2026-05-03 23:16 50.91057 -115.58848 29251 ft 438 kts 261°
2026-05-03 23:16 50.90269 -115.63527 29628 ft 440 kts 261°
2026-05-03 23:17 50.89479 -115.68202 30023 ft 439 kts 261°
2026-05-03 23:17 50.88699 -115.72808 30439 ft 438 kts 261°
2026-05-03 23:17 50.87912 -115.77450 30834 ft 437 kts 261°
2026-05-03 23:17 50.87124 -115.82101 31180 ft 438 kts 261°
2026-05-03 23:18 50.86330 -115.86761 31551 ft 439 kts 261°
2026-05-03 23:18 50.85533 -115.91412 31947 ft 438 kts 261°
2026-05-03 23:18 50.84731 -115.96080 32292 ft 439 kts 261°
2026-05-03 23:18 50.83926 -116.00734 32714 ft 438 kts 261°
2026-05-03 23:19 50.83119 -116.05381 33131 ft 438 kts 261°
2026-05-03 23:19 50.82315 -116.10021 33557 ft 438 kts 261°
2026-05-03 23:19 50.81510 -116.14662 33871 ft 438 kts 261°
2026-05-03 23:20 50.79895 -116.23971 33945 ft 439 kts 260°
2026-05-03 23:20 50.78282 -116.33227 33947 ft 440 kts 260°
2026-05-03 23:21 50.76642 -116.42549 33965 ft 440 kts 260°
2026-05-03 23:21 50.74853 -116.51821 33969 ft 443 kts 257°
2026-05-03 23:22 50.71571 -116.65490 33963 ft 445 kts 254°
2026-05-03 23:22 50.69358 -116.74525 33968 ft 444 kts 255°
2026-05-03 23:23 50.67197 -116.83656 33976 ft 444 kts 255°
2026-05-03 23:23 50.65048 -116.92786 33956 ft 445 kts 255°
2026-05-03 23:24 50.62883 -117.01919 33963 ft 445 kts 255°
2026-05-03 23:24 50.60693 -117.11054 33923 ft 446 kts 255°
2026-05-03 23:25 50.58502 -117.20132 33919 ft 447 kts 255°
2026-05-03 23:25 50.56293 -117.29286 33942 ft 448 kts 255°
2026-05-03 23:26 50.54073 -117.38437 33946 ft 448 kts 255°
2026-05-03 23:26 50.51847 -117.47586 33936 ft 449 kts 254°
2026-05-03 23:27 50.49607 -117.56743 33937 ft 449 kts 254°
2026-05-03 23:27 50.47362 -117.65897 33941 ft 450 kts 254°
2026-05-03 23:28 50.45117 -117.74991 33945 ft 450 kts 254°
2026-05-03 23:28 50.42849 -117.84149 33944 ft 450 kts 254°
2026-05-03 23:29 50.40567 -117.93298 33926 ft 451 kts 253°
2026-05-03 23:29 50.38276 -118.02462 33933 ft 452 kts 253°
2026-05-03 23:30 50.37127 -118.07048 33794 ft 453 kts 253°
2026-05-03 23:30 50.35975 -118.11638 33517 ft 453 kts 253°
2026-05-03 23:30 50.34821 -118.16228 33247 ft 453 kts 253°
2026-05-03 23:30 50.33665 -118.20821 32516 ft 454 kts 253°
2026-05-03 23:31 50.32516 -118.25394 31347 ft 461 kts 253°
2026-05-03 23:31 50.31338 -118.30065 30262 ft 463 kts 252°
2026-05-03 23:31 50.30148 -118.34770 28972 ft 467 kts 252°
2026-05-03 23:31 50.29015 -118.39543 27725 ft 468 kts 254°
2026-05-03 23:32 50.27999 -118.44352 26890 ft 461 kts 256°
2026-05-03 23:32 50.27069 -118.49109 25939 ft 457 kts 257°
2026-05-03 23:32 50.26181 -118.53831 25209 ft 449 kts 257°
2026-05-03 23:32 50.25305 -118.58479 24417 ft 442 kts 257°
2026-05-03 23:33 50.24419 -118.63057 23647 ft 437 kts 256°
2026-05-03 23:33 50.23525 -118.67549 22744 ft 429 kts 256°
2026-05-03 23:33 50.22627 -118.71965 21535 ft 424 kts 255°
2026-05-03 23:33 50.21740 -118.76270 20394 ft 420 kts 255°
2026-05-03 23:34 50.20845 -118.80598 19711 ft 421 kts 255°
2026-05-03 23:34 50.19947 -118.84960 19281 ft 420 kts 255°
2026-05-03 23:34 50.19058 -118.89278 18608 ft 417 kts 255°
2026-05-03 23:34 50.18174 -118.93568 17911 ft 414 kts 255°
2026-05-03 23:35 50.17298 -118.97821 17293 ft 409 kts 255°
2026-05-03 23:35 50.16430 -119.02016 16699 ft 405 kts 255°
2026-05-03 23:35 50.15569 -119.06159 16127 ft 402 kts 255°
2026-05-03 23:35 50.14712 -119.10316 15537 ft 398 kts 256°
2026-05-03 23:36 50.13953 -119.14442 14963 ft 394 kts 258°
2026-05-03 23:36 50.13287 -119.18551 14391 ft 390 kts 259°
2026-05-03 23:36 50.12675 -119.22587 13814 ft 387 kts 260°
2026-05-03 23:36 50.12068 -119.26654 13172 ft 383 kts 260°
2026-05-03 23:37 50.11464 -119.30619 13002 ft 367 kts 259°
2026-05-03 23:37 50.10871 -119.34393 12914 ft 351 kts 259°
2026-05-03 23:37 50.10289 -119.38000 12783 ft 336 kts 259°
2026-05-03 23:37 50.09722 -119.41460 12636 ft 324 kts 259°
2026-05-03 23:38 50.09173 -119.44793 12496 ft 312 kts 259°
2026-05-03 23:38 50.08641 -119.48011 12363 ft 302 kts 259°
2026-05-03 23:38 50.08128 -119.51122 12227 ft 292 kts 260°
2026-05-03 23:38 50.07640 -119.54093 12105 ft 282 kts 260°
2026-05-03 23:39 50.07142 -119.56992 11985 ft 274 kts 255°
2026-05-03 23:39 50.06215 -119.59552 11852 ft 272 kts 232°
2026-05-03 23:39 50.04744 -119.61414 11474 ft 278 kts 210°
2026-05-03 23:39 50.02986 -119.62730 11074 ft 282 kts 207°
2026-05-03 23:40 50.01203 -119.64041 10686 ft 285 kts 208°
2026-05-03 23:40 49.99409 -119.65368 10290 ft 287 kts 208°
2026-05-03 23:40 49.97591 -119.66686 9885 ft 291 kts 204°
2026-05-03 23:40 49.95597 -119.67329 9450 ft 297 kts 182°
2026-05-03 23:41 49.93554 -119.66989 9032 ft 292 kts 172°
2026-05-03 23:41 49.91581 -119.66490 8652 ft 283 kts 171°
2026-05-03 23:41 49.89692 -119.66011 8276 ft 274 kts 172°
2026-05-03 23:41 49.87839 -119.65542 7917 ft 265 kts 172°
2026-05-03 23:42 49.86060 -119.65095 7666 ft 253 kts 172°
2026-05-03 23:42 49.84386 -119.64679 7421 ft 235 kts 172°
2026-05-03 23:42 49.82831 -119.64289 7240 ft 222 kts 172°
2026-05-03 23:42 49.81361 -119.63531 6852 ft 222 kts 152°
2026-05-03 23:43 49.80136 -119.62124 6471 ft 220 kts 132°
2026-05-03 23:43 49.79257 -119.60215 6240 ft 217 kts 112°
2026-05-03 23:43 49.78789 -119.58020 6180 ft 213 kts 95°
2026-05-03 23:43 49.78746 -119.55770 6093 ft 203 kts 78°
2026-05-03 23:44 49.79059 -119.53765 5853 ft 189 kts 66°
2026-05-03 23:44 49.79443 -119.51881 5616 ft 179 kts 66°
2026-05-03 23:44 49.79805 -119.50084 5406 ft 171 kts 68°
2026-05-03 23:44 49.80151 -119.48370 5213 ft 164 kts 65°
2026-05-03 23:45 49.80488 -119.46713 5011 ft 159 kts 65°
2026-05-03 23:45 49.80820 -119.45090 4830 ft 158 kts 65°
2026-05-03 23:45 49.81154 -119.43481 4625 ft 156 kts 68°
2026-05-03 23:45 49.81493 -119.41874 4413 ft 158 kts 66°
2026-05-03 23:46 49.81889 -119.40310 4211 ft 154 kts 53°
2026-05-03 23:46 49.82558 -119.39074 4011 ft 147 kts 32°
2026-05-03 23:46 49.83378 -119.38146 3828 ft 143 kts 26°
2026-05-03 23:46 49.84247 -119.37505 3671 ft 136 kts 14°
2026-05-03 23:47 49.85160 -119.37147 3485 ft 136 kts
2026-05-03 23:47 49.86078 -119.37076 3389 ft 134 kts 355°
2026-05-03 23:47 49.87006 -119.37142 3391 ft 134 kts 353°
2026-05-03 23:47 49.87951 -119.37226 3422 ft 138 kts 355°
2026-05-03 23:48 49.88893 -119.37297 3428 ft 137 kts 354°
2026-05-03 23:48 49.89844 -119.37335 3437 ft 137 kts 356°
2026-05-03 23:48 49.90804 -119.37405 3281 ft 142 kts 353°
2026-05-03 23:48 49.91839 -119.37462 2762 ft 156 kts 355°
2026-05-03 23:49 49.92959 -119.37482 2100 ft 165 kts 358°
2026-05-03 23:49 49.94106 -119.37567 1577 ft 164 kts 353°
2026-05-03 23:49 49.95180 -119.37714 1410 ft 140 kts 354°
2026-05-03 23:49 49.96000 -119.37836 1413 ft 85 kts 354°
2026-05-03 23:50 49.96378 -119.37884 1422 ft 42 kts 355°
2026-05-03 23:50 49.96532 -119.37909 1421 ft 20 kts 353°
2026-05-03 23:50 49.96604 -119.38005 1425 ft 10 kts 269°
2026-05-03 23:50 49.96562 -119.38051 1425 ft 9 kts 170°
2026-05-03 23:51 49.96486 -119.38038 1423 ft 12 kts 175°
2026-05-03 23:51 49.96391 -119.38025 1421 ft 15 kts 175°
2026-05-03 23:51 49.96281 -119.38011 1419 ft 17 kts 175°
2026-05-03 23:51 49.96155 -119.37992 1417 ft 19 kts 174°
2026-05-03 23:52 49.96015 -119.37973 1413 ft 20 kts 175°
2026-05-03 23:52 49.95872 -119.37954 1409 ft 22 kts 175°
2026-05-03 23:52 49.95722 -119.37934 1409 ft 21 kts 175°
2026-05-03 23:52 49.95565 -119.37910 1405 ft 24 kts 174°
2026-05-03 23:53 49.95418 -119.37888 1399 ft 21 kts 175°
2026-05-03 23:53 49.95284 -119.37873 1396 ft 18 kts 175°
2026-05-03 23:53 49.95192 -119.37859 1395 ft 9 kts 174°
2026-05-03 23:53 49.95139 -119.37910 1387 ft 8 kts 230°
2026-05-03 23:54 49.95086 -119.37906 1387 ft 9 kts 171°
2026-05-03 23:54 49.95035 -119.37935 1386 ft 9 kts 268°
2026-05-03 23:54 49.95052 -119.37981 1386 ft 2 kts 303°
2026-05-03 23:54 49.95061 -119.38004 1387 ft 3 kts 305°
2026-05-03 23:55 49.95066 -119.38015 1387 ft 0 kts 305°